,,,PA_Meas_PMT16A,,PR_Meas_QMR101_102,,RH_Meas_QMH101,,SR_Meas_QMS101,,TA_Meas_QMH101,,GenWind,,GenWind,
date,time,status,PA,status,PR,status,RH,status,SR,status,TA,status,DirAvg,status,SpdAvg,
2010-11-16, 00:00:04,VALID,1000.45,VALID,0,VALID,91.1587,VALID,0,VALID,23.8183,VALID,190,VALID,0.391016,
2010-11-16, 00:01:04,VALID,1000.46,VALID,0,VALID,90.9069,VALID,0,VALID,23.8183,VALID,190,VALID,0.247656,
2010-11-16, 00:02:04,VALID,1000.45,VALID,0,VALID,90.7162,VALID,0,VALID,23.8183,VALID,190,VALID,0.477344,
2010-11-16, 00:03:04,VALID,1000.48,VALID,0,VALID,90.6246,VALID,0,VALID,23.8183,VALID,190,VALID,0.370313,
2010-11-16, 00:04:04,VALID,1000.44,VALID,0,VALID,90.5636,VALID,0,VALID,23.8183,VALID,190,VALID,0.561719,
2010-11-16, 00:05:04,VALID,1000.46,VALID,0,VALID,90.5254,VALID,0,VALID,23.7988,VALID,190,VALID,0.423047,
2010-11-16, 00:06:04,VALID,1000.43,VALID,0,VALID,90.411,VALID,0,VALID,23.7988,VALID,190,VALID,0.16875,
2010-11-16, 00:07:04,VALID,1000.42,VALID,0,VALID,90.3805,VALID,0,VALID,23.7793,VALID,190,VALID,0.451562,
2010-11-16, 00:08:04,VALID,1000.37,VALID,0,VALID,90.4491,VALID,0,VALID,23.7793,VALID,178,VALID,0.178906,
2010-11-16, 00:09:04,VALID,1000.34,VALID,0,VALID,90.3957,VALID,0,VALID,23.7402,VALID,178,VALID,0.437891,
2010-11-16, 00:10:04,VALID,1000.29,VALID,0,VALID,90.4644,VALID,0,VALID,23.7402,VALID,168,VALID,0.455469,
2010-11-16, 00:11:04,VALID,1000.24,VALID,0,VALID,90.556,VALID,0,VALID,23.7402,VALID,49,VALID,0.64375,
2010-11-16, 00:12:04,VALID,1000.25,VALID,0,VALID,90.617,VALID,0,VALID,23.7402,VALID,49,VALID,0.653516,
2010-11-16, 00:13:04,VALID,1000.25,VALID,0,VALID,90.5636,VALID,0,VALID,23.7402,VALID,49,VALID,0.818359,
2010-11-16, 00:14:04,VALID,1000.19,VALID,0,VALID,90.4339,VALID,0,VALID,23.7207,VALID,49,VALID,0.828906,
2010-11-16, 00:15:04,VALID,1000.17,VALID,0,VALID,90.3118,VALID,0,VALID,23.7012,VALID,49,VALID,0.910156,
2010-11-16, 00:16:04,VALID,1000.19,VALID,0,VALID,90.2889,VALID,0,VALID,23.6622,VALID,48,VALID,0.96875,
2010-11-16, 00:17:04,VALID,1000.18,VALID,0,VALID,90.0371,VALID,0,VALID,23.6036,VALID,43,VALID,1.01523,
2010-11-16, 00:18:04,VALID,1000.15,VALID,0,VALID,89.8846,VALID,0,VALID,23.4866,VALID,33,VALID,0.89375,
2010-11-16, 00:19:04,VALID,1000.14,VALID,0,VALID,90.0753,VALID,0,VALID,23.3695,VALID,28,VALID,0.810156,
2010-11-16, 00:20:04,VALID,1000.09,VALID,0,VALID,90.5712,VALID,0,VALID,23.3305,VALID,16,VALID,0.817969,
2010-11-16, 00:21:04,VALID,1000.07,VALID,0,VALID,90.9374,VALID,0,VALID,23.2702,VALID,12,VALID,0.737891,
2010-11-16, 00:22:04,VALID,1000.06,VALID,0,VALID,91.2121,VALID,0,VALID,23.2524,VALID,12,VALID,0.676172,
2010-11-16, 00:23:04,VALID,1000.05,VALID,0,VALID,91.4486,VALID,0,VALID,23.2524,VALID,358,VALID,0.480078,
2010-11-16, 00:24:04,VALID,1000.06,VALID,0,VALID,91.5173,VALID,0,VALID,23.2329,VALID,340,VALID,0.547266,
2010-11-16, 00:25:04,VALID,1000.04,VALID,0,VALID,91.6699,VALID,0,VALID,23.2329,VALID,340,VALID,0.308594,
2010-11-16, 00:26:04,VALID,1000.03,VALID,0,VALID,91.7843,VALID,0,VALID,23.2134,VALID,340,VALID,0.176953,
2010-11-16, 00:27:04,VALID,1000.06,VALID,0,VALID,91.8835,VALID,0,VALID,23.2134,VALID,340,VALID,0,
2010-11-16, 00:28:04,VALID,1000.06,VALID,0,VALID,91.9217,VALID,0,VALID,23.1939,VALID,340,VALID,0,
2010-11-16, 00:29:04,VALID,1000.04,VALID,0,VALID,91.9445,VALID,0,VALID,23.1336,VALID,340,VALID,0,
2010-11-16, 00:30:04,VALID,1000.05,VALID,0,VALID,91.9751,VALID,0,VALID,23.1354,VALID,340,VALID,0,
2010-11-16, 00:31:04,VALID,1000.04,VALID,0,VALID,91.9903,VALID,0,VALID,23.1354,VALID,340,VALID,0,
2010-11-16, 00:32:04,VALID,1000.03,VALID,0,VALID,92.0361,VALID,0,VALID,23.0964,VALID,340,VALID,0,
2010-11-16, 00:33:04,VALID,999.992,VALID,0,VALID,92.0666,VALID,0,VALID,23.0573,VALID,340,VALID,0.155859,
2010-11-16, 00:34:04,VALID,999.974,VALID,0,VALID,92.1582,VALID,0,VALID,23.0769,VALID,340,VALID,0.310156,
2010-11-16, 00:35:04,VALID,999.949,VALID,0,VALID,92.265,VALID,0,VALID,23.0769,VALID,340,VALID,0.364453,
2010-11-16, 00:36:04,VALID,999.945,VALID,0,VALID,92.3642,VALID,0,VALID,23.0964,VALID,340,VALID,0.426172,
2010-11-16, 00:37:04,VALID,999.9,VALID,0,VALID,92.4252,VALID,0,VALID,23.0769,VALID,340,VALID,0.373828,
2010-11-16, 00:38:04,VALID,999.887,VALID,0,VALID,92.4863,VALID,0,VALID,23.0556,VALID,340,VALID,0.360156,
2010-11-16, 00:39:04,VALID,999.863,VALID,0,VALID,92.5091,VALID,0,VALID,23.0378,VALID,340,VALID,0.263281,
2010-11-16, 00:40:04,VALID,999.848,VALID,0,VALID,92.5549,VALID,0,VALID,23.0183,VALID,340,VALID,0.237109,
2010-11-16, 00:41:04,VALID,999.827,VALID,0,VALID,92.5778,VALID,0,VALID,22.9988,VALID,340,VALID,0.111719,
2010-11-16, 00:42:04,VALID,999.845,VALID,0,VALID,92.616,VALID,0,VALID,22.9988,VALID,340,VALID,0,
2010-11-16, 00:43:04,VALID,999.804,VALID,0,VALID,92.6465,VALID,0,VALID,22.9988,VALID,340,VALID,0,
2010-11-16, 00:44:04,VALID,999.805,VALID,0,VALID,92.6923,VALID,0,VALID,22.9793,VALID,340,VALID,0.649609,
2010-11-16, 00:45:04,VALID,999.815,VALID,0,VALID,92.7228,VALID,0,VALID,22.9598,VALID,340,VALID,0.684375,
2010-11-16, 00:46:04,VALID,999.82,VALID,0,VALID,92.7533,VALID,0,VALID,22.9598,VALID,340,VALID,0.596484,
2010-11-16, 00:47:04,VALID,999.798,VALID,0,VALID,92.8067,VALID,0,VALID,22.9793,VALID,340,VALID,0.364844,
2010-11-16, 00:48:04,VALID,999.798,VALID,0,VALID,92.8067,VALID,0,VALID,22.9793,VALID,340,VALID,0.131641,
2010-11-16, 00:49:04,VALID,999.781,VALID,0,VALID,92.822,VALID,0,VALID,22.9403,VALID,340,VALID,0.124219,
2010-11-16, 00:50:04,VALID,999.763,VALID,0,VALID,92.8067,VALID,0,VALID,22.8818,VALID,340,VALID,0.192578,
2010-11-16, 00:51:04,VALID,999.784,VALID,0,VALID,92.822,VALID,0,VALID,22.8623,VALID,340,VALID,0.466797,
2010-11-16, 00:52:04,VALID,999.759,VALID,0,VALID,92.822,VALID,0,VALID,22.8427,VALID,340,VALID,0.420312,
2010-11-16, 00:53:04,VALID,999.759,VALID,0,VALID,92.8143,VALID,0,VALID,22.8232,VALID,340,VALID,0.369531,
2010-11-16, 00:54:04,VALID,999.725,VALID,0,VALID,92.8372,VALID,0,VALID,22.8232,VALID,340,VALID,0.214844,
2010-11-16, 00:55:04,VALID,999.691,VALID,0,VALID,92.8372,VALID,0,VALID,22.8037,VALID,340,VALID,0,
2010-11-16, 00:56:04,VALID,999.705,VALID,0,VALID,92.8448,VALID,0,VALID,22.763,VALID,340,VALID,0.0261719,
2010-11-16, 00:57:04,VALID,999.706,VALID,0,VALID,92.8525,VALID,0,VALID,22.7842,VALID,340,VALID,0.279687,
2010-11-16, 00:58:04,VALID,999.709,VALID,0,VALID,92.8906,VALID,0,VALID,22.8232,VALID,340,VALID,0.363672,
2010-11-16, 00:59:04,VALID,999.684,VALID,0,VALID,92.9135,VALID,0,VALID,22.8232,VALID,340,VALID,0.321875,
2010-11-16, 01:00:04,VALID,999.634,VALID,0,VALID,92.9517,VALID,0,VALID,22.8232,VALID,340,VALID,0.232031,
2010-11-16, 01:01:04,VALID,999.619,VALID,0,VALID,92.9593,VALID,0,VALID,22.8232,VALID,340,VALID,0.297266,
2010-11-16, 01:02:04,VALID,999.612,VALID,0,VALID,92.9745,VALID,0,VALID,22.8037,VALID,340,VALID,0.344531,
2010-11-16, 01:03:04,VALID,999.64,VALID,0,VALID,93.0127,VALID,0,VALID,22.8232,VALID,340,VALID,0.349609,
2010-11-16, 01:04:04,VALID,999.607,VALID,0,VALID,93.0203,VALID,0,VALID,22.8232,VALID,340,VALID,0.198047,
2010-11-16, 01:05:04,VALID,999.595,VALID,0,VALID,93.0356,VALID,0,VALID,22.8037,VALID,340,VALID,0.119922,
2010-11-16, 01:06:04,VALID,999.619,VALID,0,VALID,93.0432,VALID,0,VALID,22.7435,VALID,340,VALID,0.150781,
2010-11-16, 01:07:04,VALID,999.605,VALID,0,VALID,93.0585,VALID,0,VALID,22.7257,VALID,340,VALID,0.2375,
2010-11-16, 01:08:04,VALID,999.631,VALID,0,VALID,93.0661,VALID,0,VALID,22.7062,VALID,340,VALID,0.298828,
2010-11-16, 01:09:04,VALID,999.615,VALID,0,VALID,93.0585,VALID,0,VALID,22.685,VALID,340,VALID,0.208984,
2010-11-16, 01:10:04,VALID,999.59,VALID,0,VALID,93.0814,VALID,0,VALID,22.6655,VALID,340,VALID,0.209375,
2010-11-16, 01:11:04,VALID,999.599,VALID,0,VALID,93.0737,VALID,0,VALID,22.6672,VALID,340,VALID,0.286719,
2010-11-16, 01:12:04,VALID,999.599,VALID,0,VALID,93.1119,VALID,0,VALID,22.7045,VALID,340,VALID,0.112109,
2010-11-16, 01:13:04,VALID,999.586,VALID,0,VALID,93.15,VALID,0,VALID,22.7647,VALID,340,VALID,0,
2010-11-16, 01:14:04,VALID,999.601,VALID,0,VALID,93.1653,VALID,0,VALID,22.763,VALID,340,VALID,0,
2010-11-16, 01:15:04,VALID,999.597,VALID,0,VALID,93.1958,VALID,0,VALID,22.7842,VALID,340,VALID,0.297656,
2010-11-16, 01:16:04,VALID,999.628,VALID,0,VALID,93.2111,VALID,0,VALID,22.7825,VALID,340,VALID,0.523438,
2010-11-16, 01:17:04,VALID,999.632,VALID,0,VALID,93.234,VALID,0,VALID,22.8427,VALID,88,VALID,0.751953,
2010-11-16, 01:18:04,VALID,999.654,VALID,0,VALID,93.2492,VALID,0,VALID,22.802,VALID,128,VALID,1.13672,
2010-11-16, 01:19:04,VALID,999.635,VALID,0,VALID,93.2568,VALID,0,VALID,22.8037,VALID,128,VALID,1.06758,
2010-11-16, 01:20:04,VALID,999.643,VALID,0,VALID,93.295,VALID,0,VALID,22.7842,VALID,118,VALID,0.93125,
2010-11-16, 01:21:04,VALID,999.61,VALID,0,VALID,93.2797,VALID,0,VALID,22.8037,VALID,105,VALID,1.05039,
2010-11-16, 01:22:04,VALID,999.639,VALID,0,VALID,93.2874,VALID,0,VALID,22.7825,VALID,97,VALID,1.11406,
2010-11-16, 01:23:04,VALID,999.643,VALID,0,VALID,93.2874,VALID,0,VALID,22.8037,VALID,97,VALID,1.10312,
2010-11-16, 01:24:04,VALID,999.619,VALID,0,VALID,93.2721,VALID,0,VALID,22.8037,VALID,94,VALID,1.17422,
2010-11-16, 01:25:04,VALID,999.611,VALID,0,VALID,93.2874,VALID,0,VALID,22.7825,VALID,94,VALID,1.10234,
2010-11-16, 01:26:04,VALID,999.613,VALID,0,VALID,93.3179,VALID,0,VALID,22.802,VALID,107,VALID,1.04922,
2010-11-16, 01:27:04,VALID,999.581,VALID,0,VALID,93.2797,VALID,0,VALID,22.802,VALID,107,VALID,0.820703,
2010-11-16, 01:28:04,VALID,999.562,VALID,0,VALID,93.295,VALID,0,VALID,22.8427,VALID,107,VALID,0.886328,
2010-11-16, 01:29:04,VALID,999.54,VALID,0,VALID,93.3026,VALID,0,VALID,22.8623,VALID,107,VALID,0.593359,
2010-11-16, 01:30:04,VALID,999.528,VALID,0,VALID,93.3331,VALID,0,VALID,22.8818,VALID,104,VALID,0.569141,
2010-11-16, 01:31:04,VALID,999.51,VALID,0,VALID,93.295,VALID,0,VALID,22.9013,VALID,104,VALID,0.410937,
2010-11-16, 01:32:04,VALID,999.519,VALID,0,VALID,93.3103,VALID,0,VALID,22.9208,VALID,112,VALID,0.798047,
2010-11-16, 01:33:04,VALID,999.477,VALID,0,VALID,93.3179,VALID,0,VALID,22.9598,VALID,133,VALID,0.622266,
2010-11-16, 01:34:04,VALID,999.457,VALID,0,VALID,93.3179,VALID,0,VALID,22.9581,VALID,136,VALID,0.308203,
2010-11-16, 01:35:04,VALID,999.454,VALID,0,VALID,93.295,VALID,0,VALID,22.9988,VALID,136,VALID,0.494141,
2010-11-16, 01:36:04,VALID,999.429,VALID,0,VALID,93.3103,VALID,0,VALID,23.0378,VALID,136,VALID,0.325781,
2010-11-16, 01:37:04,VALID,999.407,VALID,0,VALID,93.2797,VALID,0,VALID,23.0378,VALID,136,VALID,0.0191406,
2010-11-16, 01:38:04,VALID,999.381,VALID,0,VALID,93.3179,VALID,0,VALID,23.0361,VALID,136,VALID,0.127344,
2010-11-16, 01:39:04,VALID,999.378,VALID,0,VALID,93.2721,VALID,0,VALID,23.0573,VALID,136,VALID,0.535547,
2010-11-16, 01:40:04,VALID,999.349,VALID,0,VALID,93.2492,VALID,0,VALID,23.0964,VALID,136,VALID,0.385547,
2010-11-16, 01:41:04,VALID,999.38,VALID,0,VALID,93.2492,VALID,0,VALID,23.1354,VALID,136,VALID,0.400781,
2010-11-16, 01:42:04,VALID,999.383,VALID,0,VALID,93.2187,VALID,0,VALID,23.1354,VALID,136,VALID,0.517578,
2010-11-16, 01:43:04,VALID,999.417,VALID,0,VALID,93.1729,VALID,0,VALID,23.1549,VALID,135,VALID,0.597656,
2010-11-16, 01:44:04,VALID,999.439,VALID,0,VALID,93.1195,VALID,0,VALID,23.1726,VALID,133,VALID,0.486719,
2010-11-16, 01:45:04,VALID,999.46,VALID,0,VALID,93.0585,VALID,0,VALID,23.2134,VALID,133,VALID,0.796094,
2010-11-16, 01:46:04,VALID,999.48,VALID,0,VALID,92.9593,VALID,0,VALID,23.2312,VALID,134,VALID,0.494531,
2010-11-16, 01:47:04,VALID,999.482,VALID,0,VALID,92.8525,VALID,0,VALID,23.2507,VALID,134,VALID,0.534375,
2010-11-16, 01:48:04,VALID,999.459,VALID,0,VALID,92.7151,VALID,0,VALID,23.2915,VALID,134,VALID,0.292969,
2010-11-16, 01:49:04,VALID,999.445,VALID,0,VALID,92.5626,VALID,0,VALID,23.2897,VALID,134,VALID,0.202734,
2010-11-16, 01:50:04,VALID,999.424,VALID,0,VALID,92.3871,VALID,0,VALID,23.311,VALID,134,VALID,0.113281,
2010-11-16, 01:51:04,VALID,999.379,VALID,0,VALID,92.2192,VALID,0,VALID,23.3092,VALID,134,VALID,0.0832031,
2010-11-16, 01:52:04,VALID,999.373,VALID,0,VALID,92.0209,VALID,0,VALID,23.3305,VALID,84,VALID,0.415234,
2010-11-16, 01:53:04,VALID,999.34,VALID,0,VALID,91.8377,VALID,0,VALID,23.3305,VALID,84,VALID,0.733984,
2010-11-16, 01:54:04,VALID,999.317,VALID,0,VALID,91.6699,VALID,0,VALID,23.3287,VALID,98,VALID,0.552344,
2010-11-16, 01:55:04,VALID,999.331,VALID,0,VALID,91.5326,VALID,0,VALID,23.3695,VALID,98,VALID,0.319922,
2010-11-16, 01:56:04,VALID,999.316,VALID,0,VALID,91.4486,VALID,0,VALID,23.3695,VALID,98,VALID,0.233984,
2010-11-16, 01:57:04,VALID,999.268,VALID,0,VALID,91.3342,VALID,0,VALID,23.389,VALID,98,VALID,0.48125,
2010-11-16, 01:58:04,VALID,999.282,VALID,0,VALID,91.2274,VALID,0,VALID,23.3872,VALID,98,VALID,0.540625,
2010-11-16, 01:59:04,VALID,999.204,VALID,0,VALID,91.0824,VALID,0,VALID,23.428,VALID,115,VALID,0.710938,
2010-11-16, 02:00:04,VALID,999.126,VALID,0,VALID,90.9832,VALID,0,VALID,23.428,VALID,115,VALID,0.5,
2010-11-16, 02:01:04,VALID,999.073,VALID,0,VALID,90.9298,VALID,0,VALID,23.428,VALID,115,VALID,0.324219,
2010-11-16, 02:02:04,VALID,999.005,VALID,0,VALID,90.9069,VALID,0,VALID,23.4475,VALID,116,VALID,0.478516,
2010-11-16, 02:03:04,VALID,998.98,VALID,0,VALID,90.8154,VALID,0,VALID,23.4475,VALID,116,VALID,0.1125,
2010-11-16, 02:04:04,VALID,998.953,VALID,0,VALID,90.7467,VALID,0,VALID,23.4475,VALID,116,VALID,0,
2010-11-16, 02:05:04,VALID,998.962,VALID,0,VALID,90.6933,VALID,0,VALID,23.4475,VALID,116,VALID,0.238281,
2010-11-16, 02:06:04,VALID,998.97,VALID,0,VALID,90.6857,VALID,0,VALID,23.4475,VALID,116,VALID,0.0117188,
2010-11-16, 02:07:04,VALID,998.948,VALID,0,VALID,90.6933,VALID,0,VALID,23.4671,VALID,116,VALID,0.0277344,
2010-11-16, 02:08:04,VALID,998.975,VALID,0,VALID,90.7162,VALID,0,VALID,23.4475,VALID,116,VALID,0.0828125,
2010-11-16, 02:09:04,VALID,998.978,VALID,0,VALID,90.7009,VALID,0,VALID,23.4458,VALID,116,VALID,0.180078,
2010-11-16, 02:10:04,VALID,998.97,VALID,0,VALID,90.7162,VALID,0,VALID,23.4458,VALID,116,VALID,0.198437,
2010-11-16, 02:11:04,VALID,998.953,VALID,0,VALID,90.7009,VALID,0,VALID,23.4458,VALID,116,VALID,0.277734,
2010-11-16, 02:12:04,VALID,998.95,VALID,0,VALID,90.6399,VALID,0,VALID,23.444,VALID,116,VALID,0.358984,
2010-11-16, 02:13:04,VALID,998.939,VALID,0,VALID,90.5712,VALID,0,VALID,23.4653,VALID,116,VALID,0.513672,
2010-11-16, 02:14:04,VALID,998.932,VALID,0,VALID,90.5102,VALID,0,VALID,23.4653,VALID,116,VALID,0.512891,
2010-11-16, 02:15:04,VALID,998.875,VALID,0,VALID,90.4034,VALID,0,VALID,23.4653,VALID,116,VALID,0.405469,
2010-11-16, 02:16:04,VALID,998.879,VALID,0,VALID,90.3042,VALID,0.112286,VALID,23.4848,VALID,116,VALID,0.509766,
2010-11-16, 02:17:04,VALID,998.872,VALID,0,VALID,90.2203,VALID,0,VALID,23.4848,VALID,116,VALID,0.505859,
2010-11-16, 02:18:04,VALID,998.88,VALID,0,VALID,90.1897,VALID,0,VALID,23.4848,VALID,45,VALID,0.800781,
2010-11-16, 02:19:04,VALID,998.868,VALID,0,VALID,90.1745,VALID,0,VALID,23.4848,VALID,35,VALID,0.728125,
2010-11-16, 02:20:04,VALID,998.837,VALID,0,VALID,90.1516,VALID,0,VALID,23.4653,VALID,35,VALID,0.681641,
2010-11-16, 02:21:05,VALID,998.827,VALID,0,VALID,90.1668,VALID,0.112286,VALID,23.4653,VALID,26,VALID,0.869922,
2010-11-16, 02:22:05,VALID,998.828,VALID,0,VALID,90.3194,VALID,0,VALID,23.4458,VALID,7,VALID,0.978906,
2010-11-16, 02:23:05,VALID,998.828,VALID,0,VALID,90.556,VALID,0,VALID,23.4067,VALID,356,VALID,1.08828,
2010-11-16, 02:24:05,VALID,998.81,VALID,0,VALID,90.8001,VALID,0,VALID,23.389,VALID,353,VALID,1.11992,
2010-11-16, 02:25:05,VALID,998.822,VALID,0,VALID,90.9756,VALID,0,VALID,23.35,VALID,354,VALID,1.12383,
2010-11-16, 02:26:05,VALID,998.795,VALID,0,VALID,91.1206,VALID,0,VALID,23.35,VALID,354,VALID,0.675391,
2010-11-16, 02:27:05,VALID,998.816,VALID,0,VALID,91.2045,VALID,0,VALID,23.35,VALID,357,VALID,0.846875,
2010-11-16, 02:28:05,VALID,998.837,VALID,0,VALID,91.296,VALID,0,VALID,23.3305,VALID,1,VALID,0.688672,
2010-11-16, 02:29:05,VALID,998.806,VALID,0,VALID,91.3342,VALID,0,VALID,23.3305,VALID,1,VALID,0.692969,
2010-11-16, 02:30:05,VALID,998.799,VALID,0,VALID,91.3266,VALID,0,VALID,23.311,VALID,1,VALID,0.546875,
2010-11-16, 02:31:05,VALID,998.812,VALID,0,VALID,91.3571,VALID,0,VALID,23.2915,VALID,1,VALID,0.435937,
2010-11-16, 02:32:05,VALID,998.787,VALID,0,VALID,91.3571,VALID,0,VALID,23.2719,VALID,1,VALID,0.01875,
2010-11-16, 02:33:05,VALID,998.749,VALID,0,VALID,91.4105,VALID,0,VALID,23.2524,VALID,1,VALID,0,
2010-11-16, 02:34:05,VALID,998.748,VALID,0,VALID,91.441,VALID,0,VALID,23.2524,VALID,1,VALID,0,
2010-11-16, 02:35:05,VALID,998.77,VALID,0,VALID,91.4715,VALID,0,VALID,23.2134,VALID,1,VALID,0.291797,
2010-11-16, 02:36:05,VALID,998.803,VALID,0,VALID,91.4791,VALID,0,VALID,23.1744,VALID,1,VALID,0.335938,
2010-11-16, 02:37:05,VALID,998.799,VALID,0,VALID,91.502,VALID,0,VALID,23.1549,VALID,15,VALID,0.554297,
2010-11-16, 02:38:05,VALID,998.826,VALID,0,VALID,91.5936,VALID,0,VALID,23.1354,VALID,127,VALID,0.829687,
2010-11-16, 02:39:05,VALID,998.838,VALID,0,VALID,91.6165,VALID,0,VALID,23.1354,VALID,127,VALID,1.00508,
2010-11-16, 02:40:05,VALID,998.815,VALID,0,VALID,91.7691,VALID,0,VALID,23.1549,VALID,126,VALID,0.769922,
2010-11-16, 02:41:05,VALID,998.77,VALID,0,VALID,91.8683,VALID,0,VALID,23.1744,VALID,126,VALID,0.633203,
2010-11-16, 02:42:05,VALID,998.761,VALID,0,VALID,91.914,VALID,0,VALID,23.1744,VALID,126,VALID,0.369141,
2010-11-16, 02:43:05,VALID,998.767,VALID,0,VALID,91.9827,VALID,0,VALID,23.1744,VALID,126,VALID,0.512109,
2010-11-16, 02:44:05,VALID,998.744,VALID,0,VALID,91.9674,VALID,0,VALID,23.1939,VALID,107,VALID,0.553906,
2010-11-16, 02:45:05,VALID,998.766,VALID,0,VALID,91.9674,VALID,0,VALID,23.2134,VALID,102,VALID,0.618359,
2010-11-16, 02:46:05,VALID,998.797,VALID,0,VALID,91.9522,VALID,0,VALID,23.1921,VALID,102,VALID,0.483203,
2010-11-16, 02:47:05,VALID,998.817,VALID,0,VALID,91.9217,VALID,0,VALID,23.2117,VALID,102,VALID,0.382031,
2010-11-16, 02:48:05,VALID,998.845,VALID,0,VALID,91.8759,VALID,0,VALID,23.2329,VALID,102,VALID,0.548047,
2010-11-16, 02:49:05,VALID,998.835,VALID,0,VALID,91.8377,VALID,0,VALID,23.2524,VALID,69,VALID,0.700391,
2010-11-16, 02:50:05,VALID,998.808,VALID,0,VALID,91.8072,VALID,0,VALID,23.2524,VALID,69,VALID,0.446094,
2010-11-16, 02:51:05,VALID,998.831,VALID,0,VALID,91.7385,VALID,0,VALID,23.2719,VALID,69,VALID,0.519922,
2010-11-16, 02:52:05,VALID,998.789,VALID,0,VALID,91.6012,VALID,0,VALID,23.2524,VALID,69,VALID,0.046875,
2010-11-16, 02:53:05,VALID,998.776,VALID,0,VALID,91.5173,VALID,0,VALID,23.2524,VALID,69,VALID,0.233203,
2010-11-16, 02:54:05,VALID,998.749,VALID,0,VALID,91.5249,VALID,0,VALID,23.2329,VALID,69,VALID,0.0753906,
2010-11-16, 02:55:05,VALID,998.749,VALID,0,VALID,91.4944,VALID,0,VALID,23.2329,VALID,69,VALID,0,
2010-11-16, 02:56:05,VALID,998.726,VALID,0,VALID,91.4944,VALID,0,VALID,23.2134,VALID,69,VALID,0,
2010-11-16, 02:57:05,VALID,998.69,VALID,0,VALID,91.5326,VALID,0,VALID,23.2134,VALID,69,VALID,0.309375,
2010-11-16, 02:58:05,VALID,998.701,VALID,0,VALID,91.5554,VALID,0,VALID,23.1939,VALID,69,VALID,0.3,
2010-11-16, 02:59:05,VALID,998.7,VALID,0,VALID,91.6012,VALID,0,VALID,23.1939,VALID,69,VALID,0.284375,
2010-11-16, 03:00:05,VALID,998.714,VALID,0,VALID,91.6317,VALID,0,VALID,23.1744,VALID,69,VALID,0.580078,
2010-11-16, 03:01:05,VALID,998.738,VALID,0,VALID,91.6851,VALID,0,VALID,23.1549,VALID,12,VALID,0.760156,
2010-11-16, 03:02:05,VALID,998.742,VALID,0,VALID,91.7691,VALID,0,VALID,23.1354,VALID,12,VALID,0.657812,
2010-11-16, 03:03:05,VALID,998.753,VALID,0,VALID,91.8683,VALID,0,VALID,23.1159,VALID,12,VALID,0.394922,
2010-11-16, 03:04:05,VALID,998.755,VALID,0,VALID,91.8835,VALID,0,VALID,23.0964,VALID,12,VALID,0.332812,
2010-11-16, 03:05:05,VALID,998.772,VALID,0,VALID,91.9064,VALID,0,VALID,23.0556,VALID,12,VALID,0.21875,
2010-11-16, 03:06:05,VALID,998.75,VALID,0,VALID,91.9598,VALID,0,VALID,23.0361,VALID,12,VALID,0.264453,
2010-11-16, 03:07:05,VALID,998.741,VALID,0,VALID,91.9751,VALID,0,VALID,23.0378,VALID,12,VALID,0.298047,
2010-11-16, 03:08:05,VALID,998.761,VALID,0,VALID,92.0514,VALID,0,VALID,23.0378,VALID,12,VALID,0.258203,
2010-11-16, 03:09:05,VALID,998.78,VALID,0,VALID,92.1429,VALID,0,VALID,23.0378,VALID,12,VALID,0.448828,
2010-11-16, 03:10:05,VALID,998.768,VALID,0,VALID,92.2345,VALID,0,VALID,23.0361,VALID,12,VALID,0.405078,
2010-11-16, 03:11:05,VALID,998.741,VALID,0,VALID,92.3108,VALID,0,VALID,23.0769,VALID,12,VALID,0.314063,
2010-11-16, 03:12:05,VALID,998.76,VALID,0,VALID,92.326,VALID,0,VALID,23.0769,VALID,12,VALID,0.13125,
2010-11-16, 03:13:05,VALID,998.753,VALID,0,VALID,92.3642,VALID,0,VALID,23.0556,VALID,12,VALID,0.255078,
2010-11-16, 03:14:05,VALID,998.747,VALID,0,VALID,92.4252,VALID,0,VALID,23.0751,VALID,12,VALID,0.234766,
2010-11-16, 03:15:05,VALID,998.794,VALID,0,VALID,92.4557,VALID,0,VALID,23.0946,VALID,12,VALID,0.305859,
2010-11-16, 03:16:05,VALID,998.809,VALID,0,VALID,92.5168,VALID,0,VALID,23.1159,VALID,12,VALID,0.444141,
2010-11-16, 03:17:05,VALID,998.837,VALID,0,VALID,92.5244,VALID,0,VALID,23.1159,VALID,12,VALID,0.615625,
2010-11-16, 03:18:05,VALID,998.843,VALID,0,VALID,92.5549,VALID,0,VALID,23.1354,VALID,115,VALID,0.841406,
2010-11-16, 03:19:05,VALID,998.868,VALID,0,VALID,92.5397,VALID,0,VALID,23.1549,VALID,118,VALID,0.839453,
2010-11-16, 03:20:05,VALID,998.879,VALID,0,VALID,92.5168,VALID,0,VALID,23.1744,VALID,136,VALID,0.966797,
2010-11-16, 03:21:05,VALID,998.92,VALID,0,VALID,92.4405,VALID,0,VALID,23.1744,VALID,152,VALID,1.28711,
2010-11-16, 03:22:05,VALID,998.979,VALID,0,VALID,92.2879,VALID,0,VALID,23.2134,VALID,152,VALID,1.27813,
2010-11-16, 03:23:05,VALID,998.974,VALID,0,VALID,92.059,VALID,0,VALID,23.2329,VALID,146,VALID,1.24727,
2010-11-16, 03:24:05,VALID,998.982,VALID,0,VALID,91.7004,VALID,0,VALID,23.2524,VALID,147,VALID,0.997656,
2010-11-16, 03:25:05,VALID,999.041,VALID,0,VALID,91.2731,VALID,0,VALID,23.2719,VALID,149,VALID,1.1082,
2010-11-16, 03:26:05,VALID,999.005,VALID,0,VALID,90.8154,VALID,0,VALID,23.2915,VALID,149,VALID,0.652344,
2010-11-16, 03:27:05,VALID,999.039,VALID,0,VALID,90.4491,VALID,0,VALID,23.2915,VALID,149,VALID,1.01563,
2010-11-16, 03:28:05,VALID,998.999,VALID,0,VALID,90.2203,VALID,0,VALID,23.311,VALID,149,VALID,0.558203,
2010-11-16, 03:29:05,VALID,999.007,VALID,0,VALID,90.0524,VALID,0,VALID,23.311,VALID,149,VALID,0.551562,
2010-11-16, 03:30:05,VALID,998.99,VALID,0,VALID,90.0295,VALID,0,VALID,23.311,VALID,149,VALID,0.595312,
2010-11-16, 03:31:05,VALID,999.008,VALID,0,VALID,89.9837,VALID,0,VALID,23.3305,VALID,149,VALID,0.311719,
2010-11-16, 03:32:05,VALID,999.02,VALID,0,VALID,89.9685,VALID,0,VALID,23.3305,VALID,149,VALID,0.390625,
2010-11-16, 03:33:05,VALID,998.984,VALID,0,VALID,89.9303,VALID,0,VALID,23.35,VALID,149,VALID,0.703906,
2010-11-16, 03:34:05,VALID,998.998,VALID,0,VALID,89.8693,VALID,0,VALID,23.35,VALID,149,VALID,0.553906,
2010-11-16, 03:35:05,VALID,999.02,VALID,0,VALID,89.7777,VALID,0,VALID,23.3695,VALID,148,VALID,0.679688,
2010-11-16, 03:36:05,VALID,999.056,VALID,0,VALID,89.648,VALID,0,VALID,23.389,VALID,142,VALID,0.838281,
2010-11-16, 03:37:05,VALID,999.078,VALID,0,VALID,89.4802,VALID,0,VALID,23.4085,VALID,142,VALID,0.875,
2010-11-16, 03:38:05,VALID,999.072,VALID,0,VALID,89.4115,VALID,0,VALID,23.4067,VALID,143,VALID,0.940625,
2010-11-16, 03:39:05,VALID,999.097,VALID,0,VALID,89.3276,VALID,0,VALID,23.428,VALID,143,VALID,0.877344,
2010-11-16, 03:40:05,VALID,999.115,VALID,0,VALID,89.32,VALID,0,VALID,23.428,VALID,148,VALID,0.936328,
2010-11-16, 03:41:05,VALID,999.115,VALID,0,VALID,89.3886,VALID,0,VALID,23.4475,VALID,174,VALID,0.835938,
2010-11-16, 03:42:05,VALID,999.116,VALID,0,VALID,89.3657,VALID,0,VALID,23.4475,VALID,186,VALID,1.16641,
2010-11-16, 03:43:05,VALID,999.128,VALID,0,VALID,89.3352,VALID,0,VALID,23.4671,VALID,187,VALID,1.24727,
2010-11-16, 03:44:05,VALID,999.127,VALID,0,VALID,89.1674,VALID,0,VALID,23.5061,VALID,187,VALID,1.14531,
2010-11-16, 03:45:05,VALID,999.14,VALID,0,VALID,88.9537,VALID,0,VALID,23.5451,VALID,187,VALID,1.1418,
2010-11-16, 03:46:05,VALID,999.141,VALID,0,VALID,88.8164,VALID,0,VALID,23.5664,VALID,183,VALID,1.20781,